Wind_Speed
40 40 39 38 38 37 36 37 38 39 40 41 42 43 43 42 41 40 40 39 38 37 36 36 36 37 38 39 40 42 43 43 44 46 47 48 48 48 48 47 46 45 44 42 41 40 39 39 39 38 38 37 37 38 37 36 34 32 30 27 26 24 23 20 19 17 14 14 13 14 12 7 8 13 12 12 14 11 10 15 7 6 17 22 23 28 28 31
42 42 42 42 41 40 40 39 39 40 41 42 43 44 44 45 44 43 43 42 41 40 39 39 38 39 39 40 41 41 43 43 43 44 46 48 49 49 49 49 48 47 46 44 43 42 41 40 41 40 40 39 39 39 38 38 37 35 33 30 29 28 26 24 21 19 17 18 16 16 13 7 9 12 14 16 17 15 13 13 7 10 20 23 25 28 28 30
45 44 44 44 44 44 43 42 42 41 42 43 44 45 45 46 46 46 45 45 44 43 42 41 41 41 41 42 42 42 43 43 43 42 44 47 49 50 51 50 49 49 48 47 46 44 43 42 41 41 40 40 40 40 39 39 38 37 36 33 33 31 29 27 25 22 21 21 19 17 14 9 11 14 16 18 17 15 15 13 12 17 24 25 26 27 27 29
49 48 47 46 46 46 46 46 45 45 44 44 45 45 46 47 47 48 48 47 46 45 45 44 43 43 43 43 44 44 44 43 43 42 43 45 47 49 51 51 51 50 50 49 48 46 45 44 42 42 41 41 40 40 40 39 38 38 37 36 35 35 33 31 29 27 26 24 21 18 16 12 12 14 16 16 14 12 13 14 16 21 24 26 27 27 27 27
53 52 51 50 49 49 49 49 49 48 47 46 46 46 47 48 48 48 49 49 49 48 47 47 46 46 45 45 45 46 46 44 44 44 44 44 45 47 49 51 51 52 52 50 49 48 47 46 44 44 43 42 41 41 41 40 40 39 39 38 37 37 36 34 32 31 30 29 25 21 19 17 15 14 16 15 13 13 15 17 19 20 22 26 28 27 27 27
56 56 55 54 53 52 51 51 51 51 51 50 49 48 48 49 50 50 50 50 50 50 50 49 49 48 48 47 47 48 48 47 46 46 46 45 44 45 46 49 51 52 53 52 51 50 49 48 47 46 45 45 44 43 42 42 42 41 41 41 40 39 39 37 36 36 34 33 30 26 22 20 17 17 18 15 9 10 14 16 19 20 22 25 26 27 27 27
60 59 59 58 57 56 55 54 54 54 54 53 53 52 51 50 51 51 52 51 51 51 52 52 51 51 50 50 50 50 50 50 48 48 47 46 45 45 45 47 50 52 52 52 53 52 51 51 50 49 48 47 46 45 45 44 44 44 44 43 42 41 40 40 39 39 38 36 34 31 28 22 19 19 21 15 9 12 16 16 17 20 22 22 23 26 26 25
62 62 62 61 61 60 59 58 57 57 56 56 56 55 54 53 52 52 53 53 53 53 53 53 53 53 53 52 52 52 53 53 50 49 49 48 47 47 46 45 47 50 51 52 53 53 53 53 52 51 50 49 48 47 47 47 47 46 46 45 44 42 42 41 41 40 40 39 36 35 33 29 25 24 23 18 15 18 18 16 16 20 21 20 22 24 24 22
64 64 64 64 64 63 62 62 61 60 59 59 59 58 57 57 55 55 54 54 55 55 55 55 55 55 55 55 55 55 56 55 52 51 52 51 50 49 48 47 46 47 49 51 52 53 54 54 53 53 51 50 49 50 50 49 49 48 48 48 47 45 44 43 42 42 41 40 39 36 35 35 34 30 26 22 20 21 18 16 17 19 19 19 23 23 21 21
64 65 66 66 66 66 66 65 64 64 63 62 61 61 60 60 59 58 57 56 56 56 57 57 57 57 57 57 57 57 58 57 54 52 53 53 52 52 51 49 47 46 48 50 51 52 53 54 54 54 53 52 52 52 52 51 51 50 50 50 49 47 46 44 43 43 42 41 40 37 36 37 36 33 30 26 24 24 18 16 18 19 19 20 23 21 21 22
64 65 66 66 67 68 68 68 68 67 66 66 65 64 63 63 62 61 60 59 58 58 58 58 58 58 59 59 59 59 60 59 56 53 55 56 55 54 53 52 50 48 48 49 50 51 52 52 53 54 54 54 54 54 53 53 53 52 51 51 50 49 48 46 46 45 43 43 41 39 38 38 37 35 34 29 26 24 19 19 21 21 21 21 23 21 23 23
64 65 65 65 66 68 69 70 70 70 70 69 68 67 66 65 65 64 63 62 61 60 59 59 60 60 60 61 61 61 60 60 59 56 57 59 58 57 56 54 53 52 50 50 50 50 50 50 51 53 54 55 55 55 55 56 55 54 53 52 51 51 49 48 47 46 45 45 43 42 40 40 38 37 36 32 29 26 23 23 22 21 22 23 23 22 23 24
65 66 66 64 64 65 68 71 72 72 72 72 71 71 69 68 67 67 66 65 64 63 62 61 61 61 62 62 62 62 62 62 61 59 60 62 61 59 58 57 55 54 53 52 51 50 50 49 50 51 52 53 54 56 57 58 57 56 55 53 53 52 50 48 48 47 47 46 44 43 42 41 40 39 37 34 31 30 28 24 18 19 24 26 24 24 25 24
66 67 67 67 64 63 65 69 72 74 75 75 74 74 73 72 71 70 69 68 67 66 65 64 63 63 63 63 63 63 63 64 63 62 62 63 63 61 60 60 58 57 56 54 53 52 51 50 50 50 51 52 53 55 57 59 58 57 56 55 54 52 50 49 48 48 48 46 45 44 43 42 41 40 38 35 33 31 29 26 23 24 27 27 26 27 26 24
65 67 67 68 68 66 64 65 69 73 75 77 77 77 76 75 74 73 72 71 70 69 68 67 66 65 65 64 64 64 64 64 64 64 63 64 65 64 63 62 61 59 58 57 56 54 53 52 51 50 50 51 51 53 55 58 58 58 58 57 55 54 52 50 49 49 48 47 46 45 44 43 41 40 39 37 35 34 32 30 30 30 30 30 29 28 26 25
62 65 66 68 69 70 69 67 68 71 74 77 79 79 79 78 77 76 75 74 73 72 72 71 69 68 67 66 66 65 66 66 66 65 65 66 66 66 66 65 64 62 61 60 59 57 55 54 53 52 51 50 50 51 53 55 57 58 59 58 56 55 53 52 51 50 50 48 47 46 44 44 42 41 40 38 37 36 35 34 33 33 34 34 32 29 26 25
57 60 62 65 68 70 71 71 70 70 73 76 79 81 82 81 80 79 78 77 76 75 75 74 72 71 70 69 68 67 67 67 67 66 66 66 67 68 68 67 67 65 63 62 61 60 58 57 56 54 52 51 51 51 52 55 56 57 59 58 57 56 55 54 53 52 51 49 48 47 46 44 43 42 41 39 38 38 39 39 38 38 37 34 31 29 27 26
52 55 58 60 64 68 71 73 74 74 74 75 78 81 84 84 83 82 81 80 79 78 77 76 75 74 73 71 70 70 69 69 68 68 68 68 68 69 69 70 69 68 66 64 63 62 61 60 58 56 54 54 54 54 54 55 56 56 57 56 56 56 55 55 54 53 54 52 50 49 47 46 45 43 41 40 39 39 40 41 41 40 37 33 30 29 28 27
49 51 53 56 59 64 69 73 76 77 77 77 78 81 84 85 86 85 84 83 82 81 80 79 78 77 76 74 73 73 72 71 71 70 70 70 69 69 70 70 70 69 68 67 66 65 63 62 60 58 58 58 58 57 57 56 55 55 55 54 54 55 55 55 53 52 53 54 53 50 49 48 46 44 42 41 40 40 40 40 40 39 36 33 31 29 28 27
49 49 50 52 55 58 64 69 74 78 80 81 80 81 84 87 88 88 87 86 85 84 83 82 80 79 78 78 77 76 74 73 73 72 71 71 71 71 71 71 70 70 70 69 69 67 65 63 62 62 62 61 60 59 58 57 55 55 54 53 53 54 55 55 53 51 51 53 54 51 50 50 47 45 44 42 41 40 40 40 40 39 37 34 31 30 29 28
49 48 48 49 51 54 58 63 68 74 79 82 83 83 84 86 90 90 90 89 88 87 86 84 83 82 81 80 79 78 77 76 75 74 73 73 72 72 72 71 71 71 71 72 71 69 67 65 65 66 66 64 63 61 60 58 57 55 54 53 53 53 55 56 54 52 50 50 53 52 50 50 48 46 45 42 41 41 40 40 39 39 37 34 32 31 30 28
50 48 47 47 48 50 53 56 61 67 73 80 84 85 85 86 89 91 91 91 91 90 89 87 86 84 84 83 81 81 79 78 77 76 75 74 74 73 73 72 72 72 72 73 72 70 68 68 69 70 68 67 65 64 62 61 59 57 55 54 53 54 55 56 55 53 50 49 51 52 50 49 48 45 44 42 40 39 39 38 38 37 36 34 32 31 30 28
50 48 46 45 46 47 49 51 55 60 66 73 80 85 86 87 89 91 92 93 92 92 92 90 89 87 87 85 84 83 82 80 79 79 77 76 75 74 74 74 74 74 74 73 73 71 71 72 73 73 71 69 67 66 65 63 61 59 57 56 55 56 56 57 56 53 50 47 46 48 48 46 45 43 42 40 38 37 37 37 36 35 34 33 33 32 30 27
48 46 45 43 43 45 46 48 51 54 59 65 72 79 85 87 88 90 92 94 94 94 94 93 92 91 90 88 86 85 84 82 81 81 80 78 77 76 76 76 76 75 75 75 74 73 73 75 76 74 72 71 69 68 66 65 63 61 59 58 58 58 58 58 56 53 51 47 45 45 45 43 42 41 39 36 35 35 35 35 35 34 33 33 32 31 29 25
46 44 44 42 41 43 44 45 48 51 54 59 64 71 79 85 88 89 90 93 94 95 95 94 94 94 93 91 89 88 86 84 84 84 82 80 79 79 78 78 77 77 76 76 75 74 75 76 76 76 74 73 72 70 69 67 66 63 61 61 61 61 60 59 57 54 52 49 46 44 43 43 42 39 35 34 33 33 33 33 33 32 32 32 31 30 27 24
43 41 42 42 41 41 43 43 46 49 52 55 59 63 70 78 85 88 90 91 93 95 96 96 96 96 95 94 92 90 87 86 87 86 84 82 81 81 80 79 79 78 78 77 76 75 76 77 77 77 76 75 74 72 71 69 68 65 64 64 64 63 63 61 59 56 52 48 46 44 42 41 40 36 34 33 32 31 31 31 30 32 32 31 30 28 25 24
42 39 39 42 41 40 42 43 44 47 50 52 55 58 62 70 78 85 89 90 92 94 96 97 97 97 96 96 94 93 90 89 89 88 86 84 83 83 82 81 80 80 79 78 76 75 76 77 78 78 78 77 75 74 73 72 70 68 67 67 67 66 65 63 60 58 54 49 45 43 42 40 39 38 35 33 32 32 33 31 30 31 31 30 29 26 25 25
42 38 37 39 41 40 41 42 44 47 49 50 52 55 58 63 71 79 85 90 92 93 95 97 98 97 96 96 96 95 94 92 91 90 88 86 85 85 84 83 82 82 80 78 77 77 78 78 78 77 76 76 76 76 75 74 72 71 71 71 69 68 67 65 62 60 57 52 46 44 42 39 39 39 35 32 33 36 35 33 32 32 30 29 29 27 27 26
42 38 35 36 39 40 40 42 44 46 48 49 50 53 56 59 64 72 79 86 91 92 93 95 96 97 96 96 96 97 96 94 93 92 91 89 89 88 87 86 85 84 81 79 79 80 79 79 78 77 76 76 77 77 77 75 74 74 74 73 71 69 68 67 64 62 59 55 50 47 44 41 40 39 36 33 36 38 37 34 31 31 31 30 29 28 28 29
42 38 34 33 35 37 39 41 44 46 47 48 50 52 55 58 61 66 72 80 87 90 92 93 94 96 97 96 97 96 96 96 95 95 94 93 92 91 90 89 88 86 83 81 81 81 80 79 79 79 78 78 79 79 79 77 76 76 76 74 73 71 70 69 66 64 62 58 55 51 47 44 42 41 39 38 39 40 38 34 32 31 32 31 30 29 29 30
42 38 34 32 32 34 37 40 43 45 47 48 50 51 54 57 59 62 66 72 79 84 88 90 91 93 95 96 97 96 96 96 96 97 97 96 95 94 93 91 90 87 85 83 82 82 81 80 80 80 80 80 80 81 80 79 78 78 78 76 75 74 73 71 69 66 64 61 59 56 51 47 45 44 43 42 43 43 41 38 35 34 34 33 33 32 31 31
42 37 34 31 30 31 34 38 41 43 46 48 50 51 53 55 56 57 59 64 70 77 83 87 89 92 93 95 97 96 96 96 96 97 98 98 98 98 96 93 91 89 87 85 84 83 81 81 80 80 80 81 81 81 81 80 80 80 80 79 78 77 75 73 71 68 65 63 62 60 55 50 48 46 46 45 45 45 44 40 37 35 34 35 36 35 33 32
42 37 33 31 29 29 31 35 38 41 44 47 49 51 52 52 51 53 56 58 62 68 75 81 87 91 93 94 95 95 96 96 96 97 98 100 101 99 97 95 93 91 90 88 87 85 83 83 82 81 82 81 80 81 81 81 81 81 82 82 81 79 77 74 72 70 68 66 66 64 59 53 51 49 48 48 48 47 45 40 37 36 34 35 37 36 34 34
42 36 33 30 28 27 29 32 35 38 41 44 47 49 49 49 49 51 54 55 57 61 66 75 84 90 92 93 92 93 95 96 97 98 99 101 101 99 97 97 95 94 93 91 90 88 87 87 85 84 83 81 80 82 82 82 81 81 82 82 82 81 79 77 75 73 71 70 70 68 61 55 55 54 52 52 51 49 47 43 39 37 36 36 37 38 36 35
42 36 32 29 27 26 27 29 32 35 38 40 44 46 47 48 49 52 54 55 58 61 65 73 82 88 90 91 91 92 94 95 97 99 101 101 99 97 96 96 95 95 95 94 93 92 91 90 89 87 85 83 82 83 83 82 81 82 82 81 82 81 80 79 78 77 76 74 73 70 64 58 58 58 56 55 52 50 49 47 43 40 39 38 39 41 40 38
41 36 31 28 26 25 25 27 29 32 34 36 39 42 45 47 50 53 55 56 59 61 63 68 75 81 85 87 89 91 92 94 97 100 101 101 98 96 95 94 94 95 95 94 94 94 94 94 92 90 88 86 86 86 85 84 83 83 82 82 82 82 81 81 80 79 78 76 74 72 67 63 62 61 59 59 56 53 52 52 48 44 42 42 42 43 43 41
40 36 31 27 25 23 23 24 26 29 31 33 35 39 43 46 50 53 55 56 58 59 60 61 65 71 76 81 85 87 89 91 95 99 100 99 97 96 94 93 94 94 94 94 93 94 95 95 94 93 92 90 90 89 88 88 88 86 85 85 84 83 83 82 81 79 78 77 75 73 71 67 65 64 64 63 61 59 58 56 54 49 46 45 45 45 45 44
40 35 31 27 24 21 21 21 23 26 28 30 33 37 41 45 49 52 53 55 56 57 58 59 60 63 68 74 79 83 86 90 94 97 97 96 96 96 94 93 94 94 93 93 93 93 95 96 96 95 95 95 94 93 92 92 91 90 88 88 86 85 85 84 82 80 78 77 76 75 73 70 69 70 69 68 67 65 63 60 57 53 49 47 47 47 47 46
39 35 31 27 23 20 18 19 21 23 26 29 33 36 39 41 44 47 51 54 56 56 57 58 58 58 62 67 74 79 84 88 92 94 94 93 94 94 94 94 94 94 93 92 92 93 95 96 97 97 98 98 97 96 96 95 94 93 91 90 88 87 86 84 83 81 79 77 76 76 76 75 76 77 75 73 70 66 63 60 57 54 51 49 48 48 49 48
40 34 31 27 23 20 17 17 19 21 25 28 30 33 35 37 40 44 49 53 55 55 56 56 55 55 57 61 67 74 79 84 87 89 90 91 92 92 92 93 94 94 93 93 93 93 95 96 97 98 99 99 98 98 99 98 98 97 96 94 91 90 88 85 84 82 80 78 77 77 77 80 81 79 76 73 68 64 60 57 56 54 53 53 50 48 49 49
40 35 30 26 22 19 17 16 17 19 22 25 28 31 33 35 38 42 46 50 52 53 54 54 54 54 56 59 63 68 75 79 83 85 88 90 91 92 91 91 92 93 93 94 94 94 95 96 97 98 99 99 99 100 100 100 100 101 100 97 94 92 90 87 85 82 80 79 77 77 78 83 84 79 75 72 67 65 62 59 58 57 56 56 53 50 49 50
40 36 31 26 21 18 16 15 15 17 20 23 26 29 31 34 37 39 42 45 48 50 51 53 55 56 58 59 60 64 68 73 78 81 84 87 89 90 90 89 90 92 93 95 96 96 96 97 99 99 99 98 100 101 101 101 101 102 102 100 98 95 93 90 88 85 82 80 78 78 81 85 85 79 76 74 71 68 66 63 62 60 59 59 57 53 50 50
40 36 31 26 21 17 15 14 14 16 18 21 24 27 30 33 35 37 39 42 44 47 49 53 55 56 57 59 60 61 63 67 72 77 81 84 86 88 90 89 90 92 94 96 98 99 99 99 100 101 100 99 101 103 103 102 101 102 103 103 101 99 97 95 92 89 86 83 82 80 81 84 85 82 78 76 75 71 68 67 65 61 60 60 60 56 52 51
42 37 32 27 22 17 15 13 13 15 17 20 23 26 29 31 33 35 38 40 42 45 47 50 52 55 57 59 60 61 62 64 67 72 77 80 83 86 88 90 91 92 95 97 99 101 101 101 102 103 103 102 103 105 105 105 103 103 104 105 104 103 101 99 97 94 91 88 85 82 81 84 86 84 80 78 77 74 71 70 67 63 61 61 61 60 55 53
43 38 33 28 22 17 14 13 13 14 16 18 21 24 27 29 31 33 36 39 41 43 45 47 50 53 56 58 60 62 64 65 65 68 71 75 79 82 85 88 90 92 95 97 99 100 101 101 101 103 105 105 106 107 107 107 106 106 106 106 106 106 104 102 100 99 96 92 88 84 83 86 87 86 83 81 79 77 75 72 69 66 64 64 64 64 61 57
45 40 34 29 23 17 14 12 12 13 15 16 19 22 25 28 29 32 34 37 39 42 44 46 49 51 53 55 58 61 64 65 66 67 68 70 73 78 82 85 88 91 94 96 98 99 100 101 100 101 103 106 107 108 109 109 108 107 106 106 107 107 106 105 103 101 99 95 92 88 87 88 89 87 86 84 82 80 78 74 71 70 68 68 68 67 65 59
47 42 36 30 24 18 14 11 11 12 13 15 18 21 24 26 28 31 33 35 37 40 43 45 47 49 51 53 56 59 62 64 66 67 68 69 70 73 77 80 85 89 92 95 97 99 100 102 103 102 103 106 108 110 110 110 108 107 106 107 107 107 107 107 105 103 101 98 96 93 91 92 93 90 87 87 85 82 80 75 72 72 73 71 70 68 66 62
50 44 38 32 26 20 15 11 10 10 12 14 16 19 22 24 27 29 32 34 36 38 41 43 45 47 49 52 54 56 59 62 64 66 68 69 70 71 73 75 79 84 89 93 95 98 100 102 104 105 104 106 109 111 112 112 110 108 108 108 109 108 108 107 106 104 103 101 99 98 97 97 97 93 90 90 88 84 80 76 74 76 77 75 73 70 69 68
52 47 41 34 28 22 17 13 10 9 10 12 15 17 20 22 25 27 30 32 34 37 39 41 44 46 47 49 51 53 55 58 60 62 65 67 69 71 72 74 75 78 83 87 92 96 99 102 104 105 106 106 109 111 113 114 112 110 109 109 110 110 109 108 108 107 105 103 102 103 102 102 102 97 94 92 90 86 81 77 77 77 77 79 77 73 71 71
55 50 44 38 32 25 19 15 12 10 9 11 13 16 18 21 23 25 28 30 32 34 37 39 41 43 45 47 49 51 53 55 57 59 61 62 64 67 70 72 75 77 79 82 85 90 94 99 102 104 105 107 109 111 113 114 113 112 110 110 110 111 110 109 109 109 108 105 105 106 106 106 106 102 97 94 91 87 83 80 80 77 76 80 80 75 72 72
57 51 46 40 34 28 23 17 13 11 10 11 12 14 16 18 20 22 25 27 29 32 34 36 38 40 43 44 46 49 51 52 54 55 56 58 61 63 66 69 73 76 79 81 82 85 88 92 97 100 103 105 108 111 113 114 113 111 110 110 111 112 112 112 111 110 110 108 107 108 109 109 109 105 100 96 93 90 87 84 83 81 79 80 81 78 75 74
58 53 48 42 36 31 26 21 17 13 11 10 12 13 15 17 19 21 23 25 27 28 30 32 35 37 40 41 42 44 46 48 49 51 53 56 58 60 63 66 70 73 76 79 82 83 85 87 90 94 97 101 106 109 111 113 113 110 109 111 113 114 115 114 113 112 111 109 109 110 111 111 110 106 102 98 96 94 91 88 85 84 83 81 81 81 79 76
Wind_Direction
262 259 257 255 254 253 251 248 245 243 240 237 235 234 233 233 231 230 230 231 231 229 227 227 228 230 230 228 226 222 220 220 222 222 222 222 222 222 224 225 225 225 225 223 223 223 222 223 223 222 222 222 223 222 221 223 224 225 224 221 222 222 220 222 220 216 214 224 233 230 231 238 259 275 278 273 280 287 290 306 313 261 306 323 324 329 335 340
262 260 257 255 253 251 250 249 247 244 242 240 237 235 234 233 233 231 230 230 231 231 229 228 227 228 230 230 230 227 223 220 220 222 223 224 223 223 224 224 224 225 225 225 224 224 223 224 225 224 223 224 224 224 222 223 225 226 225 224 225 226 224 225 224 218 214 226 235 231 230 224 233 259 271 276 283 278 277 293 283 274 303 316 320 328 336 339
261 259 257 255 253 251 249 248 247 245 244 242 240 237 235 234 233 232 231 230 230 230 230 229 228 227 229 230 230 230 227 223 220 220 223 224 224 224 224 224 224 225 225 225 225 225 224 225 226 227 227 227 227 227 225 225 226 227 228 227 228 229 228 226 226 222 219 228 238 239 237 225 228 249 264 275 281 271 269 274 275 291 305 312 317 326 332 334
261 259 257 255 253 251 249 247 246 245 244 242 241 239 237 235 234 233 232 231 230 230 230 230 229 227 227 229 230 231 229 227 224 222 222 223 224 225 225 224 225 225 225 225 225 225 226 225 226 228 229 229 230 231 230 229 229 229 230 231 232 232 232 229 228 228 228 232 238 242 239 229 239 261 270 278 281 269 268 272 283 297 302 305 313 324 329 330
261 259 257 255 253 251 250 248 246 244 243 242 241 240 239 237 236 234 233 232 230 230 229 229 229 228 227 227 229 230 230 228 227 225 223 222 224 225 226 225 225 225 225 226 225 225 226 226 226 227 228 229 230 232 233 233 233 232 232 234 234 234 235 233 233 233 233 234 237 239 240 237 245 266 272 269 274 279 281 283 292 298 297 301 312 323 326 327
261 259 257 255 253 251 250 248 247 244 243 241 240 240 239 238 237 236 234 233 231 230 229 228 228 228 228 227 227 229 229 228 228 228 225 224 223 224 226 226 226 226 226 226 226 226 225 226 226 226 228 229 230 231 232 233 233 233 234 235 234 234 235 235 236 237 236 234 235 235 238 243 245 251 256 254 260 278 281 279 287 294 294 299 312 321 324 325
261 259 257 255 253 252 250 248 247 245 244 242 240 239 238 238 237 236 235 234 232 231 229 228 227 228 228 228 228 228 228 228 227 229 228 226 225 224 224 226 227 226 226 226 226 226 226 226 225 226 227 228 230 231 232 232 233 233 234 234 235 236 236 236 237 238 238 236 235 234 235 239 244 244 246 248 240 244 258 262 276 292 293 299 314 321 322 326
261 260 258 256 254 252 250 248 247 245 244 243 241 239 238 237 236 236 235 234 233 232 230 229 228 227 228 228 228 228 228 227 226 228 230 228 227 226 224 225 228 227 226 226 226 226 226 226 226 226 226 227 228 230 232 233 233 234 235 235 235 237 237 237 238 239 240 240 237 236 237 237 241 249 249 246 238 239 251 254 272 290 285 296 317 319 321 327
261 260 258 256 255 253 250 248 247 245 244 243 242 240 238 237 236 235 235 235 234 233 232 230 229 227 227 227 229 229 228 227 225 226 229 229 228 228 226 225 227 228 228 226 226 226 227 227 227 227 227 227 227 229 231 232 233 234 235 235 234 235 236 236 238 240 241 242 241 238 239 240 241 250 250 242 241 246 254 257 277 282 268 294 318 315 317 324
262 260 258 257 255 254 252 249 247 245 244 243 242 241 239 237 236 235 234 234 234 233 232 231 230 229 228 227 228 229 229 227 224 224 228 229 228 229 228 226 226 227 228 227 227 227 227 227 227 228 228 228 228 228 230 232 233 234 236 236 236 237 238 238 239 240 241 243 245 242 241 243 243 246 245 244 249 250 253 259 278 274 259 295 317 310 313 319
265 262 259 257 255 254 252 251 249 246 244 243 242 241 240 239 237 235 234 233 233 233 233 232 231 230 229 228 228 229 229 228 225 223 226 228 228 229 228 228 227 227 228 228 227 227 227 227 227 228 228 228 229 228 230 232 232 233 235 237 238 238 239 239 239 240 242 243 246 245 243 244 244 244 243 247 251 248 251 258 270 266 260 293 311 305 309 313
268 266 262 258 256 254 253 251 249 247 245 243 242 240 239 238 238 236 235 233 233 232 232 232 232 231 230 229 229 229 228 228 226 223 225 227 227 228 229 228 227 227 228 229 229 228 227 228 227 228 228 229 230 230 230 231 232 232 234 235 237 238 238 239 240 240 242 243 245 246 246 245 246 246 246 247 245 245 255 264 268 261 263 288 302 302 307 309
267 268 267 263 258 255 253 251 249 248 246 244 242 240 239 238 237 237 236 234 233 232 231 232 232 231 231 230 230 229 228 228 227 223 224 227 226 226 228 228 228 227 228 229 229 229 227 227 228 228 228 229 230 230 231 231 232 232 233 235 236 237 237 238 240 241 241 242 244 246 247 248 248 249 249 248 244 247 255 259 250 243 262 282 292 296 301 304
266 266 267 267 264 259 255 252 250 248 246 244 242 240 239 237 236 236 235 235 234 232 231 231 231 231 231 231 230 229 229 229 228 225 224 226 226 225 226 227 227 227 228 228 229 229 229 228 228 228 228 228 229 230 232 233 233 233 234 234 236 238 239 239 240 242 243 242 243 245 247 248 249 250 252 250 246 247 248 245 233 237 261 276 284 292 293 295
265 265 265 266 266 264 260 254 250 247 245 244 242 241 239 237 236 235 234 234 234 233 232 231 230 231 231 231 230 230 229 229 229 227 225 225 226 225 225 226 227 227 227 228 228 229 229 229 228 228 228 229 229 230 232 233 233 233 234 234 235 237 238 239 240 242 243 243 243 243 245 246 248 250 252 251 250 248 244 239 235 242 261 271 280 288 286 288
267 265 264 263 263 263 261 258 253 248 245 242 241 240 239 237 236 235 234 233 233 233 232 231 231 230 230 230 230 230 229 229 229 228 226 225 225 225 225 225 226 226 226 227 228 228 229 229 229 228 228 229 230 231 232 233 233 233 234 234 234 236 238 239 240 241 242 243 243 243 243 244 246 248 250 250 250 250 245 241 239 248 263 271 277 281 279 283
270 267 264 262 260 259 258 256 253 249 245 242 240 238 238 237 236 234 233 232 232 232 232 232 231 230 230 229 230 230 230 229 229 228 227 226 226 226 225 225 225 225 225 226 227 228 228 229 230 229 229 228 229 230 231 233 233 233 234 234 234 235 237 239 241 242 242 242 243 244 244 244 244 245 247 248 248 249 247 245 247 255 265 269 272 273 273 277
276 271 266 261 258 256 254 252 250 247 244 241 239 237 236 236 235 234 233 232 231 231 231 231 231 231 230 229 229 230 229 229 229 228 228 227 226 226 226 225 225 225 225 225 226 227 228 228 229 230 229 229 228 229 230 233 234 234 234 235 235 235 236 238 240 242 244 244 243 244 245 246 246 245 246 247 247 248 249 249 253 260 265 266 267 267 267 271
283 277 271 264 259 255 251 248 246 245 242 240 238 236 234 234 233 233 232 232 231 230 230 230 230 230 230 229 229 229 229 229 229 228 227 227 226 226 226 226 226 226 225 225 225 226 227 228 228 228 228 229 229 230 231 232 234 235 235 235 235 235 234 235 237 240 243 245 244 244 245 246 247 247 247 248 248 249 250 252 256 260 262 263 263 262 262 265
291 284 277 269 262 256 252 248 245 243 241 239 237 235 234 232 231 231 231 231 230 230 230 229 229 229 230 229 229 229 228 229 229 228 228 227 227 227 227 226 226 226 225 225 225 225 226 226 227 227 228 229 230 231 232 232 233 235 236 236 236 236 235 234 233 235 239 243 244 244 246 247 247 248 249 249 250 250 251 253 255 257 259 259 259 258 258 259
297 290 282 273 266 259 253 249 246 243 240 238 236 235 233 232 230 230 229 229 229 229 229 229 229 229 229 229 229 229 229 228 229 228 228 228 228 227 227 227 226 226 226 226 225 225 225 225 226 227 228 229 230 232 233 232 232 233 235 236 236 237 238 235 233 233 235 240 243 243 244 246 248 249 249 249 250 251 251 252 253 255 256 257 256 255 255 255
300 293 285 276 268 261 255 251 247 244 241 238 236 234 233 232 231 229 228 228 228 228 229 229 228 228 229 228 228 229 228 228 229 229 228 228 228 228 227 227 227 226 226 227 226 225 225 225 226 227 228 228 229 231 232 233 232 233 234 235 236 237 239 238 235 233 233 237 242 244 243 244 247 248 248 249 249 250 250 251 252 253 254 254 253 252 251 251
303 294 286 278 269 262 256 252 248 245 242 240 237 235 233 232 231 230 228 227 227 227 228 228 228 228 228 228 228 228 228 228 229 229 228 228 228 228 228 228 227 227 227 227 226 225 225 225 226 227 227 228 229 230 231 233 233 232 233 234 235 236 238 239 238 234 232 233 238 243 243 243 245 247 248 249 249 249 250 250 251 251 252 250 249 248 246 245
304 295 287 279 270 263 257 252 249 246 244 241 238 236 234 232 231 231 229 228 227 227 227 227 227 228 228 227 227 228 228 228 229 229 228 228 228 227 227 227 227 227 227 226 226 225 226 226 227 227 227 228 228 229 230 232 232 232 232 233 234 236 237 239 239 237 233 230 231 237 241 241 242 244 246 247 248 248 248 249 249 249 248 246 245 243 240 236
306 296 288 280 272 264 258 253 249 246 244 242 240 237 235 233 232 231 230 229 228 227 226 227 227 227 227 227 227 227 227 227 228 229 228 228 228 228 227 227 228 227 227 227 226 226 226 227 228 228 227 227 227 228 229 230 231 231 231 232 234 235 237 238 239 238 235 231 230 233 238 240 240 241 243 243 243 243 244 245 245 244 243 242 240 238 233 226
307 297 289 281 273 266 260 254 249 246 244 242 241 238 235 234 232 231 231 230 229 228 227 226 227 227 227 227 227 226 226 227 228 228 228 228 228 228 227 227 228 228 227 227 227 226 227 227 227 228 228 228 227 228 228 229 230 230 230 232 233 235 236 237 239 239 238 234 230 230 234 238 240 239 237 237 238 237 238 238 239 239 239 237 236 231 224 216
309 299 290 282 274 267 261 255 250 247 244 241 240 239 236 234 232 231 230 230 230 229 228 227 226 227 227 227 227 227 226 226 227 228 228 228 228 229 228 227 227 228 227 227 227 227 228 228 228 228 228 228 228 228 228 228 228 229 229 231 232 234 235 237 238 239 239 236 232 230 231 234 238 237 233 232 233 232 232 231 233 235 235 232 229 221 213 211
311 302 292 282 275 268 261 256 251 247 245 241 239 238 236 234 232 231 230 230 230 229 228 228 227 227 227 227 227 227 227 226 227 228 228 228 228 229 229 228 228 227 227 227 227 227 228 228 229 229 229 230 230 229 229 229 228 228 229 231 232 233 235 236 237 238 239 238 234 230 229 229 233 237 234 228 229 231 230 228 229 231 230 227 221 212 207 209
314 305 295 284 276 268 261 255 251 247 245 242 238 237 236 234 233 231 230 229 229 229 228 228 228 227 227 227 227 227 227 226 227 228 228 227 228 228 228 228 228 227 227 226 227 227 227 228 228 228 228 229 230 230 230 229 229 229 230 230 231 232 234 236 236 237 238 238 236 231 227 224 227 233 234 227 228 232 230 227 227 229 228 223 216 209 206 208
317 309 299 288 278 269 261 254 250 247 244 241 238 236 234 233 233 231 230 229 229 228 228 228 228 228 227 227 227 227 227 227 227 228 228 227 227 228 228 228 228 228 227 227 227 227 227 227 228 228 227 227 227 229 229 229 229 230 230 231 231 231 233 235 235 236 237 237 236 233 227 223 222 225 230 229 229 230 229 227 226 227 227 221 213 209 210 210
320 312 303 291 280 271 263 255 249 246 244 241 238 236 234 232 232 231 231 230 229 228 228 228 228 229 228 227 227 227 227 227 227 228 228 228 227 227 228 228 228 228 228 227 228 228 227 228 228 229 228 228 227 227 228 228 228 229 230 230 230 231 232 233 234 235 236 236 236 234 228 224 221 220 223 228 230 229 226 224 224 223 222 218 210 208 213 213
323 315 306 296 284 273 264 257 250 246 243 241 239 236 234 233 232 231 232 232 231 229 228 228 228 229 229 228 227 227 227 227 227 228 228 228 228 228 227 228 228 229 228 228 228 228 228 228 228 229 229 230 230 229 229 228 227 227 229 230 230 230 230 231 232 233 234 234 235 235 230 225 222 220 220 224 230 231 228 223 223 223 219 215 210 207 212 213
325 318 309 299 289 277 266 258 252 247 243 240 239 237 235 234 232 231 231 231 231 230 229 228 228 228 228 228 227 227 227 228 228 228 229 228 228 228 228 227 228 228 228 228 229 229 228 228 228 228 228 229 230 231 231 230 229 228 228 229 229 229 230 230 230 231 232 232 233 234 230 225 223 221 219 222 226 230 231 224 222 225 220 214 211 209 213 213
327 320 311 303 294 282 270 260 252 247 244 241 239 237 235 234 232 231 230 230 230 229 227 227 228 227 227 227 227 227 227 227 228 228 229 229 228 227 228 228 227 228 228 228 228 229 229 229 229 228 228 229 229 231 231 231 231 230 230 230 230 229 229 228 228 228 229 230 231 232 230 225 224 222 219 221 222 226 231 228 221 222 221 214 211 211 215 215
329 323 315 306 296 284 274 264 255 249 245 242 239 237 235 233 231 230 229 227 227 227 225 225 226 226 226 226 226 226 227 227 228 229 229 229 228 227 228 228 228 228 228 228 228 229 229 229 229 229 229 229 229 230 231 231 231 232 232 232 232 231 230 228 227 227 228 228 230 231 229 225 225 224 220 221 221 222 229 232 226 221 219 215 212 211 214 215
331 325 318 309 299 287 277 266 257 250 246 243 240 237 234 232 230 230 228 226 226 227 226 227 227 227 226 226 226 226 227 227 228 228 228 229 228 228 228 228 228 229 229 229 229 229 230 230 230 229 229 229 229 230 230 230 230 230 230 231 232 232 232 230 229 228 228 229 230 231 230 226 225 225 221 220 219 218 222 229 228 222 217 215 214 212 213 214
333 327 321 312 301 290 279 268 257 250 245 242 239 236 233 231 230 230 229 228 227 228 228 228 229 228 227 227 226 226 227 228 228 228 228 228 229 228 228 228 228 229 229 229 229 229 231 231 230 230 230 230 230 230 230 230 230 228 228 229 229 230 231 231 230 229 229 229 230 231 230 228 226 226 223 220 218 216 216 221 226 224 219 214 214 214 214 214
335 330 324 315 306 294 281 270 258 249 244 241 237 234 231 229 229 229 230 229 229 228 228 228 228 228 227 226 227 226 226 227 229 228 228 228 228 228 228 229 229 229 229 229 229 229 230 231 230 230 230 230 230 231 231 232 231 230 229 229 228 229 229 230 230 229 228 228 229 230 230 229 227 226 224 221 218 215 213 215 220 224 222 217 214 214 215 215
338 333 327 320 311 299 283 269 258 247 241 239 236 235 232 230 229 229 230 230 229 228 228 228 228 228 227 226 226 226 226 226 228 229 228 228 228 228 228 229 229 229 229 229 230 229 230 230 230 230 229 229 229 230 231 232 232 232 231 230 229 229 229 229 229 228 227 227 227 229 229 229 228 227 225 222 219 217 214 213 217 222 224 222 217 214 214 215
340 336 331 325 317 305 288 270 257 246 240 237 237 236 235 232 229 228 229 230 230 228 229 229 228 228 229 228 227 226 226 227 228 229 229 228 227 227 227 228 229 229 229 230 230 230 230 230 230 230 230 229 229 229 230 231 232 232 231 230 230 229 229 228 229 228 227 226 225 227 229 230 229 227 226 223 220 218 217 214 215 219 225 226 222 215 213 215
342 339 335 330 321 309 294 276 260 247 240 236 235 235 233 231 230 228 229 230 230 229 229 230 228 227 229 229 228 227 226 226 227 228 228 228 228 226 226 227 228 228 229 230 230 230 230 230 230 230 230 229 229 229 229 230 231 232 232 231 230 230 230 229 228 228 228 227 225 225 227 230 230 228 227 226 222 219 217 215 212 214 221 227 227 220 213 215
344 342 339 334 325 313 299 282 266 251 241 235 233 233 232 230 230 229 230 231 232 231 229 229 229 227 228 229 229 228 227 227 227 227 228 228 228 227 226 226 226 227 228 229 229 230 230 230 231 230 229 229 229 229 228 229 230 231 232 231 230 230 230 230 229 228 228 227 226 224 225 229 231 228 226 226 224 219 217 216 212 210 214 222 227 224 215 214
349 345 342 338 330 319 305 288 270 255 243 236 233 232 232 230 229 230 230 231 231 231 230 229 229 229 229 230 230 230 229 228 228 228 228 228 228 228 227 225 225 226 227 228 228 229 229 229 230 231 230 229 230 229 228 228 228 230 231 231 230 229 229 229 229 227 226 226 225 225 225 228 231 229 226 225 225 221 216 216 214 209 211 218 226 227 219 215
353 350 346 342 336 326 312 294 275 260 248 240 235 233 232 231 230 230 230 231 231 231 231 231 231 230 229 230 231 231 230 229 229 229 228 228 228 229 228 226 225 225 226 227 227 228 228 228 229 230 230 229 230 229 228 227 227 228 229 230 229 228 228 228 228 227 226 225 224 224 224 227 230 230 227 224 223 222 217 215 215 211 208 214 222 228 224 217
357 354 350 346 340 332 319 300 282 267 254 245 239 236 235 233 231 230 230 231 231 232 232 232 232 231 230 230 231 232 231 230 229 229 229 229 229 229 229 228 227 226 227 228 228 228 228 228 229 230 231 230 229 230 228 227 227 227 228 228 229 228 227 227 227 227 226 225 224 223 224 226 228 228 228 225 223 221 218 215 213 212 209 209 216 224 226 220
0 358 354 350 344 338 327 307 288 271 259 249 242 238 237 235 233 232 232 232 232 232 233 233 233 233 232 231 231 232 233 231 230 230 230 230 229 229 229 229 228 228 228 228 229 229 229 228 228 229 231 232 231 230 230 228 227 227 227 228 229 228 227 226 226 226 226 225 224 223 223 225 226 226 226 226 223 221 219 215 212 212 211 209 213 221 226 223
2 1 358 353 347 342 333 316 293 275 261 252 245 240 238 237 235 234 234 234 234 234 235 235 235 235 235 234 233 233 234 234 232 231 230 230 230 230 230 229 229 229 229 229 229 229 230 229 228 228 229 232 232 231 230 230 228 227 227 228 228 229 228 227 225 225 225 225 224 223 223 225 226 224 224 225 224 221 218 214 212 212 212 211 211 217 224 225
3 3 1 358 352 345 338 326 305 282 266 256 249 244 241 239 238 236 236 236 235 235 236 237 238 237 237 237 236 235 235 236 235 234 232 230 230 231 231 230 230 230 231 231 230 230 230 230 229 228 228 230 232 231 230 230 229 228 227 227 228 228 228 228 226 225 224 224 224 224 223 224 225 224 222 224 224 221 217 214 212 212 212 212 211 212 219 225
3 4 3 1 357 351 343 334 318 294 273 261 254 249 245 243 241 239 238 238 238 238 237 238 239 239 239 239 239 239 238 238 238 238 236 233 231 231 231 231 231 231 231 232 232 231 231 231 231 230 229 229 231 232 231 230 229 228 227 227 228 228 228 227 226 225 224 223 223 224 223 224 224 223 221 222 223 221 217 213 213 214 212 211 211 210 215 223
3 3 3 2 360 356 349 341 330 313 292 275 263 256 252 248 245 243 242 241 241 241 241 241 241 242 242 241 241 241 241 240 240 239 239 238 235 233 232 231 231 232 232 232 232 233 233 232 232 231 230 230 231 232 232 231 230 228 227 227 228 228 227 227 226 225 224 222 222 223 224 224 224 223 221 221 221 220 218 214 213 214 213 211 211 210 212 219
2 2 2 2 0 358 354 348 338 324 308 289 276 267 261 257 253 250 248 246 244 244 244 244 244 244 244 243 243 243 242 242 242 241 241 240 239 237 235 233 231 231 232 232 232 233 233 233 233 232 231 231 231 232 233 232 231 229 228 228 228 228 227 227 226 225 224 222 221 222 223 223 224 223 221 221 221 219 218 215 213 214 215 212 210 210 210 215
2 2 1 1 360 358 356 353 347 338 324 304 286 275 268 264 261 257 255 253 250 249 248 247 247 247 247 247 246 247 246 246 245 244 243 242 241 239 238 236 234 232 232 232 232 233 233 233 233 233 232 232 232 232 232 233 232 230 229 228 228 228 227 226 226 225 224 222 221 222 223 223 224 223 221 220 221 220 218 216 213 213 215 214 210 209 209 212
Height
10928 10929 10930 10932 10933 10934 10935 10936 10936 10937 10939 10940 10942 10943 10945 10947 10949 10951 10952 10954 10956 10957 10959 10960 10961 10962 10962 10964 10965 10966 10968 10969 10971 10974 10975 10976 10978 10980 10981 10984 10986 10988 10990 10993 10995 10997 10998 10999 11001 11003 11004 11006 11007 11008 11010 11011 11013 11014 11017 11019 11021 11022 11024 11024 11025 11026 11027 11026 11026 11027 11028 11028 11028 11027 11027 11026 11026 11026 11025 11024 11021 11020 11021 11021 11020 11019 11018 11016
10922 10923 10924 10925 10927 10928 10929 10930 10931 10932 10933 10935 10936 10938 10939 10941 10943 10945 10947 10949 10951 10953 10954 10956 10957 10958 10959 10959 10961 10962 10964 10966 10968 10970 10971 10972 10974 10976 10977 10980 10983 10985 10987 10990 10992 10993 10995 10996 10998 11000 11001 11003 11004 11005 11007 11009 11010 11012 11014 11016 11018 11020 11021 11022 11023 11025 11026 11025 11024 11025 11026 11027 11027 11027 11026 11025 11024 11025 11026 11024 11022 11021 11021 11020 11020 11019 11018 11017
10915 10916 10917 10918 10920 10921 10922 10924 10925 10926 10928 10929 10930 10932 10934 10936 10938 10940 10942 10943 10945 10948 10949 10951 10952 10954 10954 10955 10956 10958 10960 10962 10964 10966 10966 10967 10970 10972 10973 10976 10979 10981 10983 10986 10988 10990 10992 10994 10995 10997 10999 11001 11002 11003 11005 11007 11008 11010 11012 11014 11015 11017 11018 11020 11021 11023 11024 11023 11022 11023 11024 11024 11025 11025 11025 11024 11023 11024 11025 11024 11023 11022 11021 11021 11020 11019 11018 11017
10908 10909 10910 10911 10913 10914 10915 10917 10918 10920 10921 10923 10925 10926 10928 10930 10932 10934 10936 10938 10940 10942 10944 10946 10947 10949 10950 10951 10952 10953 10955 10958 10960 10961 10962 10963 10965 10967 10970 10972 10975 10977 10979 10981 10984 10987 10989 10991 10993 10995 10997 10998 11000 11001 11003 11005 11007 11008 11010 11012 11013 11014 11015 11017 11019 11020 11021 11021 11021 11021 11022 11022 11023 11023 11023 11023 11023 11024 11024 11024 11023 11022 11022 11021 11020 11020 11019 11018
10901 10902 10903 10904 10905 10907 10908 10909 10911 10913 10915 10916 10918 10920 10922 10924 10925 10927 10929 10932 10934 10936 10938 10940 10942 10943 10945 10946 10947 10948 10950 10954 10955 10956 10958 10959 10961 10963 10966 10968 10970 10972 10975 10977 10981 10983 10985 10988 10990 10992 10993 10995 10996 10998 11000 11002 11004 11006 11007 11008 11010 11011 11012 11015 11016 11017 11018 11019 11020 11020 11020 11021 11022 11021 11021 11022 11024 11025 11025 11024 11023 11022 11022 11021 11020 11019 11019 11018
10893 10894 10895 10896 10898 10899 10900 10902 10903 10905 10907 10909 10911 10913 10915 10917 10919 10921 10923 10925 10928 10930 10932 10934 10936 10938 10939 10941 10942 10943 10945 10949 10950 10951 10954 10956 10957 10960 10961 10963 10965 10967 10970 10974 10976 10979 10982 10984 10985 10988 10990 10991 10993 10994 10996 10998 11000 11001 11003 11004 11006 11008 11009 11011 11013 11013 11015 11016 11018 11019 11020 11020 11020 11020 11021 11023 11026 11028 11026 11024 11023 11022 11022 11022 11021 11019 11018 11018
10884 10885 10886 10887 10889 10891 10892 10894 10895 10897 10899 10901 10903 10906 10908 10910 10912 10915 10917 10919 10921 10923 10926 10928 10930 10932 10934 10935 10937 10938 10940 10943 10945 10947 10949 10952 10954 10955 10957 10959 10960 10963 10966 10969 10972 10975 10977 10979 10981 10983 10985 10988 10990 10991 10993 10994 10995 10997 10998 11000 11003 11005 11006 11008 11009 11010 11011 11013 11015 11017 11018 11019 11018 11019 11021 11024 11029 11029 11026 11025 11024 11022 11023 11023 11021 11019 11017 11017
10875 10875 10877 10878 10880 10882 10884 10885 10887 10889 10891 10893 10895 10898 10900 10903 10905 10907 10910 10912 10914 10917 10919 10921 10923 10926 10928 10930 10931 10932 10933 10937 10942 10943 10945 10947 10949 10951 10953 10954 10956 10958 10962 10964 10967 10970 10972 10974 10977 10979 10981 10984 10987 10987 10989 10990 10991 10993 10994 10997 11000 11002 11003 11005 11005 11007 11009 11010 11013 11015 11016 11017 11016 11018 11021 11025 11027 11026 11024 11024 11024 11023 11022 11022 11021 11019 11017 11016
10865 10866 10867 10868 10870 10872 10874 10876 10878 10880 10882 10884 10886 10889 10892 10895 10897 10900 10902 10905 10907 10910 10912 10914 10917 10919 10921 10924 10925 10926 10927 10932 10937 10939 10939 10942 10944 10946 10948 10950 10952 10954 10956 10959 10962 10964 10967 10970 10973 10975 10978 10981 10983 10984 10984 10985 10988 10989 10990 10992 10995 10997 10999 11001 11002 11004 11006 11007 11010 11012 11014 11015 11016 11018 11021 11023 11024 11025 11025 11024 11023 11022 11022 11021 11021 11020 11018 11017
10854 10855 10856 10858 10860 10862 10864 10866 10869 10871 10873 10875 10878 10880 10883 10886 10889 10892 10895 10897 10900 10903 10905 10907 10910 10912 10915 10917 10918 10919 10921 10926 10932 10935 10935 10937 10938 10940 10943 10946 10948 10950 10951 10954 10957 10959 10963 10966 10969 10972 10974 10976 10978 10979 10980 10982 10984 10985 10987 10988 10990 10993 10996 10998 11000 11001 11003 11005 11007 11010 11012 11013 11014 11017 11020 11021 11022 11023 11024 11023 11021 11021 11020 11020 11021 11020 11018 11017
10843 10844 10846 10848 10849 10851 10854 10856 10858 10861 10863 10865 10868 10871 10874 10877 10880 10883 10886 10889 10892 10895 10898 10900 10902 10905 10907 10910 10911 10913 10915 10919 10926 10930 10929 10930 10933 10935 10938 10941 10944 10946 10947 10949 10952 10955 10958 10961 10964 10967 10969 10971 10973 10975 10977 10977 10979 10981 10983 10984 10987 10989 10992 10995 10997 10998 11001 11003 11004 11007 11008 11010 11012 11014 11017 11019 11020 11021 11021 11021 11020 11019 11018 11019 11020 11020 11019 11018
10833 10833 10834 10837 10839 10841 10842 10845 10847 10850 10853 10855 10858 10861 10864 10868 10871 10874 10877 10881 10884 10887 10890 10892 10895 10898 10900 10902 10904 10906 10910 10913 10919 10924 10923 10923 10927 10930 10932 10935 10938 10941 10942 10944 10947 10950 10953 10956 10959 10962 10964 10966 10969 10971 10972 10972 10974 10977 10978 10980 10982 10984 10988 10991 10993 10996 10998 11000 11002 11003 11005 11007 11009 11011 11014 11016 11018 11019 11019 11019 11019 11017 11017 11019 11020 11019 11019 11018
10823 10823 10823 10825 10828 10830 10831 10833 10835 10838 10841 10844 10848 10851 10854 10858 10861 10865 10868 10872 10875 10878 10882 10885 10887 10889 10892 10895 10897 10900 10904 10906 10910 10916 10917 10917 10921 10924 10927 10930 10933 10935 10938 10940 10943 10945 10949 10951 10954 10956 10959 10962 10964 10965 10966 10967 10970 10973 10974 10976 10978 10980 10984 10988 10990 10992 10994 10997 10999 11001 11002 11003 11005 11007 11010 11013 11015 11017 11018 11019 11019 11017 11016 11018 11019 11019 11018 11017
10812 10813 10812 10813 10815 10818 10819 10820 10822 10825 10829 10832 10836 10840 10844 10847 10851 10855 10859 10862 10866 10870 10873 10876 10878 10881 10884 10887 10890 10893 10897 10899 10903 10908 10910 10911 10915 10919 10921 10924 10927 10930 10932 10935 10938 10940 10943 10946 10949 10952 10954 10956 10958 10959 10961 10963 10966 10969 10970 10973 10975 10977 10981 10984 10986 10988 10989 10993 10996 10998 11000 11001 11002 11004 11006 11009 11012 11014 11016 11018 11019 11017 11016 11018 11019 11019 11018 11017
10802 10802 10802 10802 10803 10805 10807 10808 10810 10812 10816 10820 10824 10828 10832 10836 10840 10845 10849 10852 10857 10860 10863 10867 10870 10872 10875 10879 10882 10886 10889 10892 10895 10900 10903 10905 10908 10912 10915 10917 10920 10923 10926 10929 10933 10935 10938 10941 10944 10946 10949 10951 10953 10955 10956 10957 10961 10964 10965 10969 10973 10975 10978 10980 10982 10983 10985 10989 10992 10995 10997 10998 11000 11001 11003 11005 11008 11010 11013 11015 11017 11016 11016 11017 11017 11018 11017 11016
10790 10790 10790 10790 10790 10791 10793 10795 10797 10799 10802 10806 10811 10815 10820 10824 10829 10833 10838 10842 10846 10850 10853 10857 10860 10863 10867 10871 10874 10878 10881 10884 10887 10891 10895 10898 10901 10904 10908 10910 10913 10917 10920 10923 10927 10930 10933 10936 10938 10941 10944 10947 10948 10950 10951 10951 10955 10959 10961 10965 10969 10972 10975 10976 10978 10979 10981 10984 10987 10990 10992 10994 10997 10999 11000 11002 11004 11006 11009 11011 11013 11014 11014 11015 11016 11016 11016 11015
10778 10778 10778 10778 10777 10777 10779 10780 10782 10785 10788 10792 10797 10802 10806 10811 10816 10821 10826 10831 10835 10839 10843 10847 10851 10855 10858 10862 10866 10869 10872 10875 10879 10884 10887 10891 10894 10897 10900 10903 10906 10910 10914 10918 10921 10924 10928 10930 10933 10937 10940 10942 10943 10944 10945 10946 10950 10953 10956 10961 10965 10969 10972 10973 10974 10975 10976 10979 10982 10985 10987 10990 10993 10996 10997 10999 11001 11003 11004 11006 11008 11010 11011 11013 11014 11014 11014 11013
10766 10765 10764 10764 10764 10763 10764 10766 10768 10771 10774 10778 10783 10788 10792 10798 10804 10809 10814 10819 10824 10828 10832 10837 10841 10845 10849 10854 10858 10860 10864 10867 10871 10875 10879 10882 10886 10889 10893 10896 10899 10904 10908 10912 10915 10918 10922 10925 10928 10932 10935 10936 10937 10938 10939 10942 10945 10949 10952 10957 10961 10965 10968 10970 10972 10972 10972 10975 10979 10981 10983 10986 10989 10992 10994 10996 10998 10999 11000 11003 11005 11006 11008 11010 11011 11012 11012 11011
10755 10752 10751 10750 10750 10749 10750 10751 10753 10756 10760 10764 10768 10773 10779 10785 10791 10796 10801 10807 10812 10817 10821 10826 10830 10835 10840 10845 10847 10850 10854 10858 10861 10866 10870 10874 10878 10882 10885 10888 10893 10897 10902 10906 10908 10911 10915 10919 10923 10926 10927 10928 10930 10932 10935 10939 10941 10944 10949 10953 10956 10959 10962 10965 10968 10969 10968 10969 10973 10977 10980 10982 10984 10988 10990 10992 10994 10996 10997 10999 11001 11003 11004 11006 11008 11009 11009 11009
10743 10740 10738 10737 10736 10736 10736 10737 10739 10742 10746 10749 10754 10759 10766 10772 10776 10781 10788 10794 10800 10805 10809 10814 10820 10825 10829 10833 10837 10841 10846 10850 10852 10857 10862 10866 10870 10874 10877 10881 10887 10891 10895 10898 10901 10905 10909 10914 10917 10918 10919 10922 10925 10928 10931 10935 10938 10940 10945 10948 10950 10953 10955 10959 10963 10965 10965 10965 10968 10973 10976 10977 10981 10984 10987 10988 10990 10992 10994 10996 10997 10999 11001 11003 11004 11005 11006 11006
10732 10728 10725 10724 10723 10723 10723 10724 10726 10728 10732 10735 10740 10746 10752 10758 10762 10767 10775 10781 10787 10792 10798 10803 10809 10814 10817 10822 10828 10832 10837 10841 10844 10848 10854 10858 10862 10866 10870 10875 10879 10884 10887 10889 10894 10899 10904 10908 10909 10909 10912 10916 10919 10923 10927 10931 10934 10937 10940 10943 10946 10948 10948 10953 10958 10961 10963 10964 10965 10969 10972 10974 10978 10981 10983 10985 10987 10988 10990 10992 10993 10995 10997 10999 11001 11002 11002 11003
10721 10717 10714 10712 10711 10710 10711 10712 10713 10716 10719 10722 10727 10732 10739 10745 10749 10755 10763 10768 10774 10780 10785 10791 10797 10802 10806 10812 10818 10821 10827 10832 10835 10839 10845 10849 10854 10858 10862 10867 10871 10875 10878 10882 10888 10894 10898 10900 10899 10900 10905 10910 10914 10918 10921 10925 10929 10933 10936 10939 10941 10942 10943 10946 10951 10957 10962 10964 10963 10966 10969 10972 10975 10977 10979 10982 10984 10985 10986 10988 10989 10991 10994 10996 10997 10998 10999 11000
10710 10706 10703 10701 10700 10699 10700 10701 10702 10704 10706 10709 10714 10719 10725 10732 10737 10743 10750 10756 10762 10768 10773 10779 10785 10790 10795 10800 10807 10811 10817 10823 10826 10830 10836 10840 10845 10850 10855 10859 10862 10866 10871 10875 10880 10886 10889 10889 10890 10893 10899 10904 10908 10912 10916 10919 10924 10928 10931 10934 10935 10936 10937 10940 10945 10952 10959 10962 10962 10962 10964 10970 10973 10974 10976 10979 10981 10982 10983 10984 10986 10988 10990 10992 10993 10994 10996 10998
10700 10696 10693 10691 10690 10689 10690 10691 10692 10693 10695 10697 10701 10707 10713 10719 10725 10731 10737 10743 10750 10755 10761 10767 10773 10777 10782 10789 10796 10801 10806 10814 10816 10819 10826 10832 10836 10841 10845 10849 10852 10857 10861 10866 10871 10877 10880 10880 10882 10888 10893 10898 10902 10907 10911 10914 10919 10923 10926 10928 10929 10931 10932 10934 10939 10946 10952 10957 10959 10958 10960 10966 10969 10970 10973 10976 10977 10978 10979 10980 10982 10984 10985 10987 10989 10991 10993 10995
10691 10686 10682 10681 10681 10679 10680 10682 10682 10683 10684 10686 10689 10695 10701 10706 10712 10719 10725 10731 10737 10743 10749 10755 10760 10765 10770 10777 10784 10790 10797 10805 10806 10808 10816 10823 10827 10831 10835 10840 10844 10848 10853 10857 10863 10869 10871 10873 10877 10882 10886 10891 10895 10900 10904 10908 10912 10917 10921 10922 10923 10925 10926 10929 10934 10939 10945 10952 10956 10958 10958 10961 10964 10967 10971 10972 10973 10974 10975 10976 10978 10979 10981 10983 10985 10987 10990 10992
10682 10678 10673 10670 10671 10670 10670 10672 10673 10673 10674 10676 10679 10684 10689 10694 10700 10706 10712 10718 10724 10731 10737 10742 10747 10752 10759 10766 10772 10780 10789 10794 10794 10797 10806 10812 10817 10820 10825 10832 10835 10839 10844 10849 10856 10862 10863 10866 10871 10875 10879 10883 10888 10893 10897 10901 10906 10911 10914 10915 10916 10919 10921 10924 10929 10934 10940 10947 10953 10956 10957 10958 10961 10964 10967 10967 10969 10971 10971 10973 10974 10975 10977 10980 10982 10985 10987 10990
10673 10669 10664 10660 10660 10661 10661 10662 10663 10663 10664 10667 10670 10674 10679 10683 10687 10693 10700 10705 10711 10718 10725 10730 10735 10740 10748 10755 10762 10770 10777 10781 10783 10788 10797 10804 10808 10811 10816 10822 10826 10830 10836 10843 10850 10854 10856 10859 10863 10867 10872 10877 10883 10887 10891 10895 10900 10904 10906 10907 10910 10913 10916 10920 10924 10929 10935 10941 10949 10953 10955 10957 10957 10959 10962 10965 10966 10966 10967 10969 10970 10971 10974 10976 10979 10982 10984 10987
10663 10660 10656 10651 10649 10651 10652 10652 10654 10653 10654 10658 10662 10664 10668 10672 10675 10680 10686 10691 10697 10704 10710 10716 10723 10730 10738 10745 10751 10758 10764 10771 10776 10779 10787 10794 10798 10801 10806 10811 10816 10821 10829 10836 10841 10844 10847 10851 10856 10863 10869 10874 10878 10880 10884 10888 10893 10896 10897 10900 10904 10907 10910 10915 10920 10925 10929 10936 10944 10949 10953 10956 10955 10955 10960 10963 10962 10961 10963 10966 10967 10968 10970 10973 10975 10979 10981 10984
10654 10650 10647 10643 10640 10641 10642 10643 10644 10643 10645 10649 10652 10655 10657 10661 10664 10668 10674 10678 10683 10691 10698 10705 10713 10720 10728 10734 10739 10746 10753 10761 10766 10769 10776 10782 10785 10790 10794 10800 10805 10812 10821 10827 10831 10833 10838 10844 10849 10856 10862 10866 10869 10872 10876 10882 10886 10888 10890 10894 10899 10902 10905 10910 10916 10920 10924 10931 10938 10943 10948 10952 10953 10953 10956 10960 10959 10957 10961 10964 10966 10966 10967 10970 10972 10976 10978 10981
10644 10640 10637 10635 10632 10631 10632 10633 10633 10634 10636 10639 10642 10645 10647 10650 10654 10657 10662 10665 10671 10680 10687 10694 10702 10708 10716 10723 10728 10735 10742 10751 10756 10759 10763 10769 10773 10779 10784 10789 10795 10803 10812 10819 10822 10825 10831 10837 10841 10845 10850 10853 10857 10862 10867 10873 10878 10881 10883 10888 10893 10897 10900 10904 10910 10915 10919 10925 10930 10935 10942 10947 10950 10951 10953 10954 10952 10953 10958 10961 10963 10963 10965 10967 10970 10973 10976 10979
10636 10631 10628 10626 10624 10623 10623 10623 10624 10625 10627 10629 10632 10635 10638 10640 10644 10649 10653 10657 10664 10672 10677 10684 10692 10696 10704 10711 10716 10723 10731 10738 10744 10746 10750 10757 10762 10767 10772 10779 10787 10796 10805 10810 10813 10817 10824 10830 10833 10837 10842 10845 10848 10851 10856 10863 10869 10872 10875 10880 10885 10890 10893 10898 10904 10909 10915 10920 10922 10928 10935 10940 10944 10947 10948 10948 10947 10949 10953 10956 10958 10960 10962 10965 10968 10971 10973 10976
10628 10623 10619 10617 10616 10615 10614 10614 10615 10617 10618 10620 10623 10626 10629 10632 10638 10644 10648 10652 10657 10663 10668 10674 10680 10683 10689 10697 10703 10712 10720 10726 10732 10734 10739 10745 10749 10754 10764 10774 10782 10789 10796 10802 10805 10810 10818 10822 10826 10831 10834 10838 10842 10845 10849 10854 10859 10864 10867 10871 10876 10881 10886 10892 10898 10904 10909 10913 10915 10920 10928 10935 10939 10942 10944 10944 10943 10943 10947 10952 10955 10958 10960 10963 10965 10968 10971 10973
10620 10615 10611 10609 10608 10608 10607 10606 10606 10608 10610 10612 10614 10617 10621 10627 10634 10639 10640 10643 10648 10654 10660 10664 10667 10669 10675 10684 10693 10702 10709 10714 10720 10724 10726 10729 10734 10746 10758 10767 10773 10779 10785 10792 10796 10802 10807 10811 10816 10821 10824 10830 10835 10838 10843 10847 10851 10856 10858 10861 10866 10872 10879 10886 10892 10897 10902 10905 10907 10911 10920 10929 10934 10937 10940 10940 10939 10939 10942 10948 10953 10955 10958 10960 10963 10966 10969 10971
10612 10608 10604 10602 10601 10600 10599 10598 10599 10600 10602 10604 10606 10610 10615 10621 10627 10630 10631 10636 10640 10644 10648 10649 10649 10654 10661 10672 10682 10690 10696 10702 10707 10709 10710 10713 10724 10740 10749 10756 10762 10768 10774 10781 10786 10792 10797 10800 10806 10811 10816 10823 10828 10830 10834 10840 10845 10849 10851 10854 10859 10863 10871 10878 10883 10888 10892 10895 10899 10903 10913 10924 10928 10929 10933 10933 10935 10937 10939 10943 10949 10951 10953 10957 10960 10963 10966 10968
10605 10601 10598 10595 10594 10593 10592 10591 10592 10593 10595 10597 10600 10604 10609 10614 10617 10619 10621 10626 10628 10629 10631 10631 10632 10639 10649 10661 10671 10677 10683 10690 10693 10694 10697 10704 10718 10733 10741 10748 10755 10759 10764 10772 10778 10783 10785 10789 10796 10803 10810 10817 10820 10821 10825 10832 10837 10840 10844 10850 10853 10857 10863 10869 10874 10878 10882 10886 10892 10897 10907 10917 10920 10922 10927 10929 10932 10936 10936 10938 10943 10947 10949 10953 10956 10958 10962 10965
10598 10594 10591 10589 10587 10586 10586 10585 10585 10587 10588 10591 10594 10597 10601 10605 10607 10608 10611 10615 10617 10618 10622 10624 10627 10634 10644 10653 10660 10666 10672 10677 10679 10681 10687 10697 10710 10723 10731 10738 10744 10748 10754 10764 10771 10774 10775 10780 10787 10795 10801 10806 10809 10811 10814 10819 10823 10828 10835 10841 10845 10850 10855 10860 10866 10871 10875 10881 10887 10892 10900 10909 10912 10915 10919 10922 10926 10931 10932 10933 10936 10941 10945 10948 10951 10954 10958 10961
10593 10588 10585 10583 10581 10580 10580 10579 10579 10581 10583 10585 10587 10589 10593 10596 10598 10599 10603 10607 10610 10613 10617 10621 10625 10630 10639 10646 10651 10658 10663 10665 10666 10669 10678 10691 10702 10713 10721 10726 10732 10737 10744 10753 10761 10764 10767 10772 10779 10786 10792 10796 10799 10801 10803 10805 10808 10815 10821 10826 10833 10840 10845 10851 10858 10865 10872 10877 10882 10887 10893 10901 10905 10907 10910 10913 10917 10921 10923 10925 10928 10933 10939 10944 10947 10950 10954 10957
10588 10582 10579 10577 10576 10575 10574 10574 10574 10575 10577 10578 10580 10581 10583 10587 10589 10593 10597 10600 10603 10607 10610 10614 10618 10624 10630 10637 10641 10646 10651 10651 10651 10657 10671 10683 10692 10701 10710 10715 10721 10728 10735 10742 10749 10753 10756 10759 10767 10775 10780 10784 10788 10791 10793 10796 10801 10808 10813 10817 10825 10830 10834 10841 10849 10858 10866 10872 10878 10882 10886 10893 10896 10894 10896 10900 10903 10908 10913 10918 10922 10927 10933 10939 10943 10946 10949 10953
10583 10578 10574 10571 10570 10570 10569 10569 10569 10570 10571 10572 10573 10574 10577 10581 10585 10589 10591 10591 10595 10600 10603 10606 10613 10618 10622 10626 10630 10633 10637 10639 10642 10650 10664 10675 10682 10691 10699 10704 10710 10717 10725 10732 10736 10741 10744 10747 10754 10762 10765 10770 10777 10781 10783 10787 10793 10798 10802 10809 10817 10820 10825 10833 10841 10849 10858 10866 10872 10875 10878 10881 10879 10878 10882 10888 10895 10903 10912 10918 10923 10926 10930 10934 10939 10943 10946 10950
10578 10574 10570 10567 10565 10565 10564 10564 10564 10564 10565 10567 10568 10569 10573 10577 10580 10582 10582 10583 10587 10593 10596 10601 10609 10614 10616 10618 10621 10623 10627 10632 10637 10645 10654 10662 10670 10679 10686 10693 10700 10708 10715 10719 10724 10728 10732 10735 10742 10747 10750 10757 10766 10770 10772 10777 10781 10782 10787 10797 10805 10809 10817 10826 10834 10841 10850 10859 10865 10869 10872 10867 10863 10869 10878 10886 10898 10908 10916 10923 10927 10929 10930 10931 10935 10940 10944 10947
10573 10570 10566 10564 10561 10560 10559 10559 10560 10560 10561 10563 10564 10565 10568 10570 10572 10574 10576 10578 10582 10587 10592 10596 10603 10607 10607 10607 10610 10613 10617 10623 10629 10636 10642 10648 10656 10666 10674 10682 10689 10696 10701 10705 10709 10714 10719 10724 10728 10733 10738 10746 10753 10756 10760 10765 10768 10769 10776 10787 10796 10804 10813 10821 10829 10837 10845 10852 10858 10864 10864 10853 10853 10868 10880 10888 10898 10906 10912 10919 10924 10926 10928 10929 10932 10937 10941 10944
10570 10566 10563 10560 10558 10556 10555 10555 10555 10556 10558 10559 10560 10560 10562 10564 10567 10569 10571 10574 10577 10581 10586 10589 10593 10596 10598 10598 10601 10605 10610 10616 10621 10627 10632 10638 10644 10654 10663 10670 10677 10682 10685 10689 10693 10698 10705 10711 10713 10718 10727 10734 10737 10741 10747 10752 10756 10759 10764 10776 10788 10797 10805 10812 10820 10829 10837 10844 10850 10856 10853 10843 10848 10866 10877 10883 10891 10898 10906 10911 10916 10921 10924 10925 10927 10932 10938 10941
10568 10563 10560 10557 10555 10553 10552 10552 10552 10552 10553 10555 10556 10557 10558 10559 10562 10564 10567 10569 10571 10574 10578 10581 10584 10588 10591 10593 10595 10598 10604 10608 10613 10617 10622 10627 10633 10641 10649 10658 10664 10668 10671 10674 10677 10683 10690 10696 10699 10703 10713 10720 10720 10724 10733 10740 10745 10748 10752 10763 10775 10783 10791 10799 10807 10816 10824 10832 10837 10844 10846 10840 10843 10857 10867 10874 10881 10891 10900 10905 10910 10918 10922 10924 10925 10927 10933 10937
10566 10561 10557 10554 10552 10551 10549 10549 10549 10549 10550 10551 10552 10553 10554 10556 10558 10561 10562 10564 10566 10568 10571 10574 10577 10581 10584 10586 10587 10590 10594 10598 10602 10606 10612 10617 10623 10629 10637 10645 10651 10655 10656 10658 10662 10668 10676 10683 10687 10689 10696 10703 10703 10707 10717 10726 10730 10735 10740 10750 10760 10769 10778 10788 10794 10802 10811 10819 10825 10834 10839 10835 10835 10846 10858 10866 10873 10883 10892 10899 10906 10915 10920 10922 10923 10923 10927 10931
10565 10560 10555 10552 10550 10548 10547 10546 10546 10546 10547 10548 10549 10549 10550 10552 10555 10556 10557 10559 10561 10563 10565 10568 10570 10572 10575 10578 10580 10581 10584 10589 10594 10598 10602 10608 10613 10618 10625 10632 10638 10643 10645 10647 10651 10657 10665 10673 10678 10678 10681 10687 10690 10693 10702 10711 10718 10724 10731 10739 10746 10755 10767 10776 10783 10790 10800 10810 10819 10827 10830 10825 10826 10837 10848 10856 10864 10873 10883 10892 10901 10909 10913 10915 10916 10915 10918 10923
10564 10558 10554 10551 10548 10546 10545 10544 10543 10543 10544 10544 10545 10546 10546 10548 10550 10552 10553 10554 10556 10558 10559 10561 10563 10564 10568 10572 10574 10574 10576 10580 10586 10590 10594 10599 10604 10608 10613 10620 10626 10629 10632 10637 10640 10645 10653 10661 10667 10669 10670 10673 10678 10684 10690 10699 10708 10717 10724 10730 10735 10743 10753 10763 10772 10781 10790 10801 10811 10818 10820 10815 10816 10828 10838 10844 10853 10862 10873 10885 10895 10902 10906 10908 10909 10910 10912 10919
10563 10558 10554 10550 10547 10545 10543 10542 10541 10541 10541 10541 10542 10542 10542 10543 10545 10547 10548 10549 10551 10553 10553 10554 10556 10559 10561 10564 10566 10567 10568 10571 10576 10581 10585 10590 10594 10598 10602 10608 10614 10616 10619 10624 10629 10633 10639 10644 10651 10657 10659 10659 10665 10673 10679 10686 10698 10708 10715 10720 10725 10731 10740 10750 10762 10772 10781 10791 10799 10805 10808 10804 10804 10817 10828 10832 10841 10851 10864 10879 10889 10894 10898 10901 10905 10908 10911 10916
10563 10559 10554 10550 10546 10543 10542 10540 10539 10539 10538 10538 10539 10539 10539 10539 10541 10542 10543 10544 10546 10547 10548 10549 10550 10553 10555 10556 10558 10560 10562 10564 10567 10571 10576 10581 10586 10589 10593 10598 10602 10605 10608 10612 10618 10622 10625 10629 10636 10644 10648 10649 10651 10658 10665 10673 10684 10695 10702 10708 10713 10720 10728 10738 10751 10762 10769 10779 10787 10791 10793 10789 10791 10806 10817 10821 10830 10842 10857 10873 10881 10884 10888 10894 10900 10905 10907 10909
10563 10558 10553 10550 10546 10543 10540 10538 10537 10537 10536 10536 10536 10536 10536 10536 10537 10537 10538 10539 10540 10542 10543 10544 10545 10546 10548 10550 10551 10553 10556 10557 10560 10563 10566 10571 10577 10581 10585 10588 10592 10595 10598 10601 10604 10608 10612 10616 10622 10630 10637 10640 10640 10643 10650 10658 10669 10680 10689 10695 10701 10708 10716 10725 10737 10748 10757 10768 10773 10773 10777 10777 10779 10793 10807 10813 10823 10836 10850 10865 10873 10876 10880 10886 10892 10899 10903 10905
10561 10557 10553 10549 10545 10542 10539 10537 10535 10534 10534 10533 10533 10533 10533 10533 10533 10533 10534 10535 10536 10536 10537 10538 10539 10540 10541 10543 10545 10546 10548 10549 10551 10554 10557 10561 10567 10571 10575 10579 10582 10584 10587 10590 10592 10596 10599 10603 10609 10616 10624 10628 10629 10630 10635 10643 10654 10667 10678 10685 10690 10697 10705 10712 10721 10732 10743 10754 10758 10758 10763 10766 10767 10781 10799 10808 10817 10831 10843 10856 10866 10870 10872 10878 10886 10893 10899 10901
10561 10556 10552 10548 10545 10541 10538 10536 10534 10533 10532 10531 10530 10530 10529 10529 10529 10529 10530 10530 10531 10531 10532 10533 10534 10534 10534 10536 10537 10538 10540 10542 10544 10547 10550 10552 10556 10560 10563 10567 10570 10573 10576 10578 10580 10584 10587 10591 10596 10602 10610 10616 10617 10617 10621 10629 10641 10655 10667 10673 10676 10681 10688 10696 10704 10714 10727 10738 10744 10746 10749 10750 10754 10772 10792 10803 10811 10823 10832 10843 10856 10862 10865 10871 10880 10888 10892 10895
10561 10556 10551 10548 10544 10541 10537 10535 10533 10531 10530 10529 10528 10527 10527 10526 10525 10525 10525 10525 10526 10526 10527 10528 10528 10528 10528 10530 10531 10532 10533 10535 10537 10539 10541 10543 10545 10548 10551 10553 10557 10561 10564 10567 10570 10573 10576 10580 10584 10589 10597 10602 10601 10604 10610 10615 10626 10644 10656 10659 10660 10663 10670 10679 10688 10698 10711 10724 10732 10733 10734 10741 10751 10768 10787 10798 10804 10812 10821 10831 10844 10852 10857 10864 10873 10880 10885 10887